Olathe, KS

11:10 PM CDT on March 25, 2017 (GMT -0500)
Johnson County Executive

Weather History for KOJC - June, 2014

Change the Weather History Date:

Tuesday, June 24, 2014

  Actual Average Record
Temperature  
Mean Temperature 74 °F 75 °F  
Max Temperature 84 °F 85 °F 100 °F (1988)
Min Temperature 63 °F 66 °F 52 °F (1940)
Degree Days  
Heating Degree Days 0 0  
Month to date heating degree days 1 6  
Since 1 June heating degree days 1 6  
Since 1 July heating degree days 5693 4932  
Cooling Degree Days 9 10  
Month to date cooling degree days 185 191  
Year to date cooling degree days 338 295  
Since 1 June cooling degree days 185 191  
Growing Degree Days 22 (Base 50)    
Moisture  
Dew Point 62 °F    
Average Humidity 70    
Maximum Humidity 93    
Minimum Humidity 47    
Precipitation  
Precipitation 0.00 in 0.19 in 1.80 in (1976)
Month to date precipitation 7.35 4.97  
Year to date precipitation 14.93 19.71  
Sea Level Pressure  
Sea Level Pressure 29.98 in    
Wind  
Wind Speed 4 mph (NW)    
Max Wind Speed 10 mph    
Max Gust Speed 15 mph    
Visibility 10 miles    
Events      
T = Trace of Precipitation, MM = Missing Value Source: NWS Daily Summary

Daily Weather History Graph

Daily Weather History Graph

Search for Another Location

Airport or City:

Trip Planner

Search our weather history database for the weather conditions in past years. The results will help you decide how hot, cold, wet, or windy it might be!

Date:

Astronomy

Jun. 24, 2014 Rise Set
Actual Time 5:54 AM CDT 8:48 PM CDT
Civil Twilight 5:22 AM CDT 9:20 PM CDT
Nautical Twilight 4:42 AM CDT 10:00 PM CDT
Astronomical Twilight 3:55 AM CDT 10:46 PM CDT
Moon 4:01 AM CDT (6/24) 6:28 PM CDT (6/24)
Length of Visible Light 15h 57m
Length of Day
14h 53m
Waning Crescent, 7% of the Moon is Illuminated
Jun 24
Waning Crescent
Jun 27
New
Jul 5
First Quarter
Jul 12
Full
Jul 18
Last Quarter

Hourly Weather History & Observations

Time (CDT) Temp. Heat Index Dew Point Humidity Pressure Visibility Wind Dir Wind Speed Gust Speed Precip Events Conditions
12:53 AM 68.0 °F - 63.0 °F 84% 29.94 in 10.0 mi NW 4.6 mph - N/A   Clear
1:53 AM 66.0 °F - 63.0 °F 90% 29.95 in 10.0 mi NW 4.6 mph - N/A   Clear
2:53 AM 66.0 °F - 63.0 °F 90% 29.95 in 10.0 mi NNW 4.6 mph - N/A   Clear
3:53 AM 64.0 °F - 62.1 °F 93% 29.95 in 10.0 mi NW 4.6 mph - N/A   Clear
4:53 AM 64.0 °F - 62.1 °F 93% 29.95 in 10.0 mi NW 4.6 mph - N/A   Clear
5:53 AM 63.0 °F - 61.0 °F 93% 29.98 in 10.0 mi Calm Calm - N/A   Clear
6:53 AM 64.9 °F - 61.0 °F 87% 29.98 in 10.0 mi NW 4.6 mph - N/A   Clear
7:53 AM 69.1 °F - 62.1 °F 78% 29.98 in 10.0 mi NW 3.5 mph - N/A   Clear
9:53 AM 75.9 °F - 60.1 °F 58% 30.00 in 10.0 mi WNW 5.8 mph - N/A   Clear
10:53 AM 79.0 °F - 61.0 °F 54% 30.00 in 10.0 mi North 8.1 mph - N/A   Clear
11:53 AM 80.1 °F 81.1 °F 61.0 °F 52% 30.00 in 10.0 mi Variable 5.8 mph - N/A   Clear
12:53 PM 81.0 °F 81.6 °F 60.1 °F 49% 30.00 in 10.0 mi Variable 3.5 mph - N/A   Clear
1:53 PM 82.9 °F 83.3 °F 61.0 °F 47% 30.00 in 10.0 mi NNW 3.5 mph - N/A   Partly Cloudy
2:53 PM 82.0 °F 82.4 °F 60.1 °F 47% 30.00 in 10.0 mi Variable 5.8 mph - N/A   Partly Cloudy
3:53 PM 81.0 °F 81.9 °F 62.1 °F 52% 29.99 in 10.0 mi NW 4.6 mph - N/A   Scattered Clouds
4:53 PM 81.0 °F 81.6 °F 60.1 °F 49% 29.96 in 10.0 mi WNW 5.8 mph - N/A   Mostly Cloudy
5:53 PM 80.1 °F 81.1 °F 61.0 °F 52% 29.96 in 10.0 mi NW 8.1 mph - N/A   Clear
6:53 PM 79.0 °F - 62.1 °F 56% 29.95 in 10.0 mi NW 5.8 mph - N/A   Clear
7:53 PM 78.1 °F - 63.0 °F 60% 29.97 in 10.0 mi NW 4.6 mph - N/A   Clear
8:53 PM 75.0 °F - 63.0 °F 66% 29.97 in 10.0 mi Calm Calm - N/A   Clear
9:53 PM 73.0 °F - 64.9 °F 76% 29.98 in 10.0 mi Calm Calm - N/A   Clear
10:53 PM 73.0 °F - 64.9 °F 76% 29.99 in 10.0 mi Calm Calm - N/A   Clear
11:53 PM 71.1 °F - 64.9 °F 81% 29.99 in 10.0 mi Calm Calm - N/A   Clear